Date String (YYYY-MM-DD hh:mm:ss) UTC,Instrument flags,absolute air pressure of the measurement (hPa),sample flow rate (lpm),inlet stack bypass flow (lpm),air temperature of the measurement (°C),ambient temperature measured by the external sensor (°C),aerosol sample conditioner tube jacket temperature (°C),OPC LED temperature (°C),internal box temperature (°C),relative humidity of the measurement (%),span deviation,mass concentration of particles derived from Lorenz-Mie calculation of OPC scattering (μg/m³),mass concentration of particles derived from Lorenz-Mie calculation of OPC scattering (μg/m³),mass concentration of particles derived from Lorenz-Mie calculation of OPC scattering (μg/m³)
DateTimeUTC,F1_M11,P_M11,Q1_M11,Q2_M11,T1_M11,T2_M11,T3_M11,T4_M11,T5_M11,U1_M11,ZSPAN_M11,X0_M11,X2_M11,X1_M11
2023-12-07 06:00:00,SystemResetWarning,0824.9,4.99,000.00,024.9,023.8,000.0,033.3,026.2,7.3,0000.0,0002.06,0000.50,0000.40
2023-12-07 06:01:00,SystemResetWarning,0824.9,5.00,000.00,024.9,023.8,000.0,033.3,026.2,7.3,0000.0,0002.10,0000.52,0000.40
2023-12-07 06:02:00,SystemResetWarning,0824.9,5.00,000.00,024.9,023.8,000.0,033.3,026.2,7.3,0000.0,0002.13,0000.53,0000.41
2023-12-07 06:03:00,SystemResetWarning,0824.9,5.00,000.00,024.9,023.8,000.0,033.3,026.2,7.3,0000.0,0002.14,0000.54,0000.42
2023-12-07 06:04:00,SystemResetWarning,0824.9,5.00,000.00,024.9,023.8,000.0,033.3,026.2,7.2,0000.0,0002.33,0000.55,0000.42
2023-12-07 06:05:00,SystemResetWarning,0824.9,5.00,000.00,024.9,023.8,000.0,033.3,026.2,7.1,0000.0,0002.32,0000.56,0000.42
2023-12-07 06:06:00,SystemResetWarning,0824.9,5.00,000.00,024.9,023.8,000.0,033.3,026.2,7.2,0000.0,0002.39,0000.57,0000.43
2023-12-07 06:07:00,SystemResetWarning,0824.9,5.00,000.00,024.9,023.8,000.0,033.3,026.2,7.2,0000.0,0002.33,0000.57,0000.44
2023-12-07 06:08:00,SystemResetWarning,0824.9,5.01,000.00,024.9,023.7,000.0,033.3,026.2,7.2,0000.0,0001.75,0000.55,0000.44
2023-12-07 06:09:00,SystemResetWarning,0824.9,5.01,000.00,024.9,023.7,000.0,033.3,026.2,7.1,0000.0,0001.13,0000.57,0000.45
2023-12-07 06:10:00,SystemResetWarning,0824.9,5.01,000.00,024.8,023.7,000.0,033.3,026.2,7.0,0000.0,0001.13,0000.57,0000.45
2023-12-07 06:11:00,SystemResetWarning,0824.9,4.99,000.00,024.8,023.7,000.0,033.3,026.2,7.0,0000.0,0001.17,0000.60,0000.47
2023-12-07 06:12:00,SystemResetWarning,0824.9,4.99,000.00,024.8,023.7,000.0,033.3,026.1,7.0,0000.0,0001.47,0000.60,0000.48
2023-12-07 06:13:00,SystemResetWarning,0824.9,5.00,000.00,024.8,023.7,000.0,033.2,026.1,7.1,0000.0,0002.54,0000.62,0000.49
2023-12-07 06:14:00,SystemResetWarning,0824.8,5.00,000.00,024.8,023.6,000.0,033.2,026.1,7.1,0000.0,0002.58,0000.65,0000.51
2023-12-07 06:15:00,SystemResetWarning,0824.8,5.01,000.00,024.8,023.6,000.0,033.2,026.1,7.1,0000.0,0002.41,0000.65,0000.52
2023-12-07 06:16:00,SystemResetWarning,0824.7,5.00,000.00,024.8,023.6,000.0,033.2,026.1,7.2,0000.0,0002.31,0000.66,0000.54
2023-12-07 06:17:00,SystemResetWarning,0824.8,5.01,000.00,024.8,023.6,000.0,033.2,026.1,7.4,0000.0,0002.28,0000.65,0000.55
2023-12-07 06:18:00,SystemResetWarning,0824.8,5.00,000.00,024.8,023.6,000.0,033.2,026.1,7.4,0000.0,0002.34,0000.66,0000.56
2023-12-07 06:19:00,SystemResetWarning,0824.7,5.00,000.00,024.8,023.7,000.0,033.2,026.1,7.3,0000.0,0002.38,0000.68,0000.56
2023-12-07 06:20:00,SystemResetWarning,0824.7,5.00,000.00,024.8,023.7,000.0,033.2,026.1,7.2,0000.0,0002.36,0000.67,0000.56
2023-12-07 06:21:00,SystemResetWarning,0824.7,5.00,000.00,024.8,023.7,000.0,033.2,026.1,7.2,0000.0,0002.37,0000.67,0000.55
2023-12-07 06:22:00,SystemResetWarning,0824.7,5.00,000.00,024.8,023.7,000.0,033.2,026.1,7.2,0000.0,0002.37,0000.65,0000.54
2023-12-07 06:23:00,SystemResetWarning,0824.7,5.01,000.00,024.7,023.7,000.0,033.2,026.1,7.2,0000.0,0001.90,0000.64,0000.52
2023-12-07 06:24:00,SystemResetWarning,0824.7,5.00,000.00,024.7,023.7,000.0,033.2,026.0,7.2,0000.0,0000.92,0000.61,0000.51
2023-12-07 06:25:00,SystemResetWarning,0824.7,5.01,000.00,024.7,023.7,000.0,033.2,026.0,7.1,0000.0,0000.84,0000.56,0000.49
2023-12-07 06:26:00,SystemResetWarning,0824.7,5.00,000.00,024.7,023.7,000.0,033.2,026.0,6.9,0000.0,0000.80,0000.54,0000.47
2023-12-07 06:27:00,SystemResetWarning,0824.7,5.00,000.00,024.7,023.7,000.0,033.2,026.0,6.8,0000.0,0000.76,0000.52,0000.45
2023-12-07 06:28:00,SystemResetWarning,0824.7,4.99,000.00,024.7,023.7,000.0,033.2,026.0,6.7,0000.0,0000.69,0000.50,0000.43
2023-12-07 06:29:00,SystemResetWarning,0824.7,4.99,000.00,024.7,023.7,000.0,033.1,026.0,6.8,0000.0,0000.66,0000.48,0000.42
2023-12-07 06:30:00,SystemResetWarning,0824.7,5.00,000.00,024.7,023.7,000.0,033.1,026.0,6.8,0000.0,0001.19,0000.48,0000.42
2023-12-07 06:31:00,SystemResetWarning,0824.7,5.01,000.00,024.7,023.7,000.0,033.1,026.0,7.0,0000.0,0001.23,0000.49,0000.42
2023-12-07 06:32:00,SystemResetWarning,0824.7,5.00,000.00,024.7,023.7,000.0,033.1,026.0,7.1,0000.0,0001.23,0000.49,0000.42
2023-12-07 06:33:00,SystemResetWarning,0824.7,5.00,000.00,024.7,023.7,000.0,033.1,026.0,7.1,0000.0,0001.18,0000.46,0000.41
2023-12-07 06:34:00,SystemResetWarning,0824.7,5.00,000.00,024.7,023.6,000.0,033.1,026.0,7.1,0000.0,0001.16,0000.46,0000.41
2023-12-07 06:35:00,SystemResetWarning,0824.7,5.00,000.00,024.7,023.6,000.0,033.1,026.0,7.0,0000.0,0001.16,0000.45,0000.41
2023-12-07 06:36:00,SystemResetWarning,0824.7,5.00,000.00,024.7,023.6,000.0,033.1,026.0,6.9,0000.0,0001.15,0000.45,0000.40
2023-12-07 06:37:00,SystemResetWarning,0824.6,5.00,000.00,024.7,023.6,000.0,033.1,026.0,6.9,0000.0,0001.18,0000.46,0000.39
2023-12-07 06:38:00,SystemResetWarning,0824.6,5.00,000.00,024.7,023.5,000.0,033.1,026.0,6.9,0000.0,0002.84,0000.45,0000.39
2023-12-07 06:39:00,SystemResetWarning,0824.6,5.00,000.00,024.7,023.5,000.0,033.1,025.9,6.8,0000.0,0003.17,0000.45,0000.38
2023-12-07 06:40:00,SystemResetWarning,0824.5,5.01,000.00,024.6,023.5,000.0,033.1,025.9,6.7,0000.0,0003.15,0000.45,0000.38
2023-12-07 06:41:00,SystemResetWarning,0824.5,5.00,000.00,024.6,023.5,000.0,033.1,025.9,6.6,0000.0,0002.55,0000.42,0000.37
2023-12-07 06:42:00,SystemResetWarning,0824.5,5.00,000.00,024.6,023.4,000.0,033.0,025.9,6.8,0000.0,0002.54,0000.42,0000.36
2023-12-07 06:43:00,SystemResetWarning,0824.5,5.00,000.00,024.6,023.4,000.0,033.0,025.9,6.7,0000.0,0002.53,0000.41,0000.36
2023-12-07 06:44:00,SystemResetWarning,0824.5,5.00,000.00,024.6,023.4,000.0,033.0,025.9,6.6,0000.0,0002.63,0000.41,0000.36
2023-12-07 06:45:00,SystemResetWarning,0824.4,5.00,000.00,024.6,023.4,000.0,033.0,025.9,6.5,0000.0,0003.70,0000.41,0000.35
2023-12-07 06:46:00,SystemResetWarning,0824.4,5.00,000.00,024.6,023.4,000.0,033.0,025.9,6.9,0000.0,0003.71,0000.42,0000.35
2023-12-07 06:47:00,SystemResetWarning,0824.4,5.00,000.00,024.6,023.4,000.0,033.0,025.8,6.8,0000.0,0003.71,0000.42,0000.35
2023-12-07 06:48:00,SystemResetWarning,0824.4,5.00,000.00,024.6,023.4,000.0,033.0,025.8,6.9,0000.0,0003.69,0000.41,0000.35
2023-12-07 06:49:00,SystemResetWarning,0824.4,5.00,000.00,024.5,023.4,000.0,033.0,025.9,6.7,0000.0,0001.93,0000.40,0000.35
2023-12-07 06:50:00,SystemResetWarning,0824.3,4.99,000.00,024.5,023.4,000.0,033.0,025.8,6.7,0000.0,0001.74,0000.41,0000.34
2023-12-07 06:51:00,SystemResetWarning,0824.4,5.00,000.00,024.5,023.4,000.0,033.0,025.7,6.8,0000.0,0001.77,0000.42,0000.34
2023-12-07 06:52:00,SystemResetWarning,0824.4,5.00,000.00,024.5,023.4,000.0,033.0,025.7,6.8,0000.0,0001.75,0000.41,0000.33
2023-12-07 06:53:00,SystemResetWarning,0824.4,5.00,000.00,024.5,023.4,000.0,033.0,025.7,6.8,0000.0,0001.69,0000.38,0000.32
2023-12-07 06:54:00,SystemResetWarning,0824.3,5.00,000.00,024.5,023.3,000.0,033.0,025.7,6.9,0000.0,0001.67,0000.36,0000.30
2023-12-07 06:55:00,SystemResetWarning,0824.4,5.00,000.00,024.5,023.3,000.0,032.9,025.7,6.9,0000.0,0001.57,0000.37,0000.30
2023-12-07 06:56:00,SystemResetWarning,0824.3,5.00,000.00,024.5,023.3,000.0,032.9,025.6,6.8,0000.0,0000.53,0000.36,0000.30
2023-12-07 06:57:00,SystemResetWarning,0824.4,5.00,000.00,024.4,023.3,000.0,032.9,025.7,6.6,0000.0,0000.51,0000.35,0000.30
2023-12-07 06:58:00,SystemResetWarning,0824.3,4.99,000.00,024.4,023.3,000.0,032.9,025.6,6.4,0000.0,0000.50,0000.35,0000.29
2023-12-07 06:59:00,SystemResetWarning,0824.3,4.99,000.00,024.4,023.3,000.0,032.9,025.6,6.3,0000.0,0000.50,0000.34,0000.29
